Tracking 23762 objects as of 20-Oct-2021
HD Live streaming from Space Station
objects crossing your sky now

OV3-3

Track OV3-3 now!
10-day predictions
OV3-3 is classified as:


NORAD ID: 2389
Int'l Code: 1966-070A
Perigee: 346.3 km
Apogee: 2,215.4 km
Inclination: 81.4 °
Period: 111.0 minutes
Semi major axis: 7651 km
RCS: 0.7052 m2 (medium)
Launch date: August 4, 1966
Source: United States (US)
Launch site: AIR FORCE WESTERN TEST RANGE (AFWTR)
aabbcc
Your satellite tracking list
Your tracking list is empty




NASA's NSSDC Master Catalog

Two Line Element Set (TLE):
1 02389U 66070A   21292.71461502  .00004574  00000-0  24612-3 0  9991
2 02389  81.3851 326.5256 1221387  74.0557 299.1466 12.97040116374788
Source of the keplerian elements: AFSPC